Tirane, Albania

3:13 PM CET on December 05, 2016 (GMT +0100)
Tirane

Weather History for 13615 - May, 2013

Change the Weather History Date:

Tuesday, May 7, 2013

  Actual Average Record
Temperature  
Mean Temperature 68 °F -  
Max Temperature 76 °F - - ()
Min Temperature 60 °F - - ()
Cooling Degree Days 3    
Growing Degree Days 18 (Base 50)    
Moisture  
Dew Point 62 °F    
Average Humidity 82    
Maximum Humidity 94    
Minimum Humidity 51    
Precipitation  
Precipitation 0.00 in - - ()
Sea Level Pressure  
Sea Level Pressure 29.97 in    
Wind  
Wind Speed 4 mph ()    
Max Wind Speed 13 mph    
Max Gust Speed 16 mph    
Visibility 5.9 miles    
Events Rain , Thunderstorm    
T = Trace of Precipitation, MM = Missing Value Source: Averaged Metar Reports

Daily Weather History Graph

Daily Weather History Graph

Search for Another Location

Airport or City:

Trip Planner

Search our weather history database for the weather conditions in past years. The results will help you decide how hot, cold, wet, or windy it might be!

Date:

Astronomy

May. 07, 2013 Rise Set
Actual Time 5:30 AM CEST 7:45 PM CEST
Civil Twilight 5:00 AM CEST 8:15 PM CEST
Nautical Twilight 4:22 AM CEST 8:53 PM CEST
Astronomical Twilight 3:40 AM CEST 9:35 PM CEST
Moon 3:56 AM CEST (5/7) 5:25 PM CEST (5/7)
Length of Visible Light 15h 15m
Length of Day
14h 14m
Waning Crescent, 7% of the Moon is Illuminated
May 7
Waning Crescent
May 10
New
May 18
First Quarter
May 25
Full
May 31
Last Quarter

Hourly Weather History & Observations

Time (CEST) Temp. Dew Point Humidity Pressure Visibility Wind Dir Wind Speed Gust Speed Precip Events Conditions
12:20 AM 64.4 °F 62.6 °F 94% 29.98 in 3.7 mi South 3.5 mph - N/A   Mostly Cloudy
12:50 AM 66.2 °F 62.6 °F 88% 29.98 in 5.0 mi NNW 6.9 mph - N/A   Overcast
1:20 AM 64.4 °F 62.6 °F 94% 29.98 in 6.2 mi North 10.4 mph - N/A   Mostly Cloudy
1:50 AM 64.4 °F 62.6 °F 94% 29.98 in 6.2 mi NNW 9.2 mph - N/A Rain Light Rain
2:20 AM 64.4 °F 60.8 °F 88% 29.98 in 6.2 mi NW 4.6 mph - N/A   Mostly Cloudy
2:50 AM 64.4 °F 60.8 °F 88% 29.98 in 6.2 mi Variable 2.3 mph - N/A   Overcast
3:20 AM 64.4 °F 60.8 °F 88% 29.98 in 6.2 mi Calm Calm - N/A   Overcast
3:50 AM 64.4 °F 62.6 °F 94% 29.98 in 6.2 mi Calm Calm - N/A   Mostly Cloudy
4:20 AM 64.4 °F 60.8 °F 88% 29.95 in 6.2 mi South 2.3 mph - N/A Thunderstorm Thunderstorm
4:50 AM 62.6 °F 60.8 °F 94% 29.95 in 5.6 mi South 5.8 mph - N/A   Mostly Cloudy
5:00 AM 63 °F 62 °F 93% 29.96 in 7 mi South 4.5 mph - -   Scattered Clouds
5:20 AM 64.4 °F 62.6 °F 94% 29.95 in 5.0 mi SE 3.5 mph - N/A   Mostly Cloudy
5:50 AM 64.4 °F 62.6 °F 94% 29.98 in 3.7 mi Variable 2.3 mph - N/A   Mostly Cloudy
6:20 AM 64.4 °F 62.6 °F 94% 29.98 in 3.7 mi NNW 3.5 mph - N/A   Mostly Cloudy
6:50 AM 64.4 °F 62.6 °F 94% 29.98 in 3.7 mi NNW 3.5 mph - N/A   Scattered Clouds
7:20 AM 64.4 °F 62.6 °F 94% 29.98 in 3.7 mi Variable 2.3 mph - N/A   Scattered Clouds
7:50 AM 66.2 °F 64.4 °F 94% 29.98 in 4.3 mi Variable 2.3 mph - N/A Thunderstorm Thunderstorm
8:20 AM 68.0 °F 62.6 °F 83% 29.98 in 5.0 mi Calm Calm - N/A   Scattered Clouds
8:50 AM 68.0 °F 64.4 °F 88% 29.98 in 4.3 mi Variable 2.3 mph - N/A   Scattered Clouds
9:20 AM 69.8 °F 64.4 °F 83% 29.98 in 5.6 mi North 2.3 mph - N/A   Mostly Cloudy
9:50 AM 73.4 °F 62.6 °F 69% 29.98 in 6.2 mi Calm Calm - N/A   Scattered Clouds
10:20 AM 73.4 °F 62.6 °F 69% 29.98 in 6.2 mi WSW 2.3 mph - N/A   Scattered Clouds
10:50 AM 75.2 °F 60.8 °F 61% 29.98 in 6.2 mi Variable 2.3 mph - N/A   Scattered Clouds
11:00 AM 76 °F 61 °F 51% 29.98 in 15 mi 2.2 mph - -   Scattered Clouds
11:20 AM 75.2 °F 60.8 °F 61% 29.98 in 6.2 mi Variable 3.5 mph - N/A   Scattered Clouds
11:50 AM 75.2 °F 62.6 °F 65% 29.98 in 6.2 mi NW 4.6 mph - N/A   Scattered Clouds
12:20 PM 75.2 °F 60.8 °F 61% 29.95 in 6.2 mi NNW 4.6 mph - N/A   Scattered Clouds
12:50 PM 73.4 °F 62.6 °F 69% 29.95 in 6.2 mi WNW 8.1 mph - N/A   Scattered Clouds
1:20 PM 73.4 °F 62.6 °F 69% 29.95 in 6.2 mi West 9.2 mph - N/A Rain Light Rain
1:50 PM 75.2 °F 60.8 °F 61% 29.95 in 6.2 mi West 10.4 mph - N/A   Scattered Clouds
2:20 PM 75.2 °F 60.8 °F 61% 29.95 in 6.2 mi WSW 12.7 mph - N/A Thunderstorm Mostly Cloudy
2:50 PM 73.4 °F 60.8 °F 65% 29.95 in 6.2 mi West 10.4 mph - N/A Thunderstorm Thunderstorm
3:20 PM 71.6 °F 62.6 °F 73% 29.95 in 6.2 mi North 9.2 mph - N/A Thunderstorm Thunderstorm
3:50 PM 68.0 °F 59.0 °F 73% 29.95 in 6.2 mi Variable 3.5 mph 16.1 mph N/A   Overcast
4:20 PM 66.2 °F 59.0 °F 78% 29.98 in 6.2 mi NE 6.9 mph - N/A Thunderstorm Thunderstorm
4:50 PM 66.2 °F 60.8 °F 83% 29.95 in 6.2 mi NNE 4.6 mph - N/A Thunderstorm Thunderstorm
5:00 PM 67 °F 62 °F 78% 29.97 in 12 mi NNE 2.2 mph - -   Mostly Cloudy
5:20 PM 68.0 °F 60.8 °F 78% 29.95 in 6.2 mi Variable 2.3 mph - N/A Rain Light Rain
5:50 PM 68.0 °F 60.8 °F 78% 29.95 in 6.2 mi Variable 2.3 mph - N/A Rain Light Rain
6:20 PM 69.8 °F 60.8 °F 73% 29.95 in 6.2 mi Variable 1.2 mph - N/A Thunderstorm Thunderstorm
6:50 PM 68.0 °F 62.6 °F 83% 29.95 in 6.2 mi ENE 3.5 mph - N/A   Mostly Cloudy
7:20 PM 68.0 °F 62.6 °F 83% 29.95 in 6.2 mi North 2.3 mph - N/A   Mostly Cloudy
7:50 PM 68.0 °F 62.6 °F 83% 29.95 in 6.2 mi Variable 1.2 mph - N/A   Mostly Cloudy
8:20 PM 66.2 °F 62.6 °F 88% 29.95 in 6.2 mi NNW 3.5 mph - N/A   Overcast
9:20 PM 64.4 °F 60.8 °F 88% 29.95 in 6.2 mi NNW 3.5 mph - N/A   Scattered Clouds
9:50 PM 64.4 °F 62.6 °F 94% 29.98 in 4.3 mi ENE 2.3 mph - N/A   Mostly Cloudy
10:20 PM 64.4 °F 62.6 °F 94% 29.98 in 4.3 mi Calm Calm - N/A   Mostly Cloudy
10:50 PM 62.6 °F 60.8 °F 94% 29.98 in 4.3 mi Calm Calm - N/A   Mostly Cloudy
11:00 PM 63 °F 61 °F 89% 29.97 in 4 mi ESE 2.2 mph - -  
11:20 PM 60.8 °F 59.0 °F 94% 29.98 in 4.3 mi South 3.5 mph - N/A   Scattered Clouds
11:50 PM 60.8 °F 59.0 °F 94% 29.98 in 5.0 mi Calm Calm - N/A   Scattered Clouds